TimeCST,TemperatureF,Dew PointF,Humidity,Sea Level PressureIn,VisibilityMPH,Wind Direction,Wind SpeedMPH,Gust SpeedMPH,PrecipitationIn,Events,Conditions,WindDirDegrees,DateUTC
12:54 AM,14.0,6.1,71,30.27,10.0,NNW,11.5,-,N/A,,Clear,330,2014-01-15 06:54:00
1:54 AM,12.9,5.0,71,30.28,10.0,NW,10.4,-,N/A,,Clear,310,2014-01-15 07:54:00
2:54 AM,10.0,3.0,73,30.28,10.0,NNW,9.2,-,N/A,,Clear,330,2014-01-15 08:54:00
3:54 AM,9.0,3.0,77,30.27,10.0,NNW,5.8,-,N/A,,Clear,330,2014-01-15 09:54:00
4:54 AM,10.0,3.0,73,30.27,10.0,WNW,8.1,-,N/A,,Clear,300,2014-01-15 10:54:00
5:54 AM,9.0,3.0,77,30.26,10.0,SW,3.5,-,N/A,,Clear,230,2014-01-15 11:54:00
6:54 AM,6.1,-0.0,76,30.25,10.0,WSW,9.2,-,N/A,,Clear,240,2014-01-15 12:54:00
7:54 AM,1.9,-2.0,83,30.24,10.0,SW,5.8,-,N/A,,Clear,230,2014-01-15 13:54:00
8:54 AM,10.9,3.9,73,30.25,10.0,Calm,Calm,-,N/A,,Clear,0,2014-01-15 14:54:00
9:54 AM,16.0,5.0,62,30.21,10.0,South,5.8,-,N/A,,Scattered Clouds,190,2014-01-15 15:54:00
10:54 AM,21.0,7.0,55,30.18,10.0,South,9.2,-,N/A,,Mostly Cloudy,170,2014-01-15 16:54:00
11:54 AM,23.0,7.0,50,30.14,10.0,South,11.5,-,N/A,,Overcast,190,2014-01-15 17:54:00
12:54 PM,28.9,9.0,43,30.06,10.0,South,11.5,-,N/A,,Mostly Cloudy,190,2014-01-15 18:54:00
1:54 PM,33.1,12.0,42,29.97,10.0,South,18.4,-,N/A,,Overcast,180,2014-01-15 19:54:00
2:54 PM,34.0,12.9,42,29.92,10.0,South,18.4,-,N/A,,Overcast,180,2014-01-15 20:54:00
3:54 PM,35.1,15.1,44,29.88,10.0,South,20.7,-,N/A,,Overcast,190,2014-01-15 21:54:00
4:54 PM,36.0,16.0,44,29.86,10.0,South,19.6,-,N/A,,Overcast,180,2014-01-15 22:54:00
5:54 PM,36.0,18.0,48,29.83,10.0,South,17.3,-,N/A,,Mostly Cloudy,170,2014-01-15 23:54:00
6:54 PM,36.0,19.0,50,29.81,10.0,South,15.0,-,N/A,,Mostly Cloudy,180,2014-01-16 00:54:00
7:54 PM,37.0,21.9,54,29.78,10.0,South,15.0,-,N/A,,Overcast,190,2014-01-16 01:54:00
8:54 PM,35.1,21.9,59,29.78,10.0,SSW,9.2,-,N/A,,Mostly Cloudy,210,2014-01-16 02:54:00
9:54 PM,28.9,19.0,67,29.77,10.0,SW,9.2,-,N/A,,Clear,220,2014-01-16 03:54:00
10:54 PM,35.1,21.9,59,29.76,10.0,West,6.9,-,N/A,,Overcast,260,2014-01-16 04:54:00
11:54 PM,45.0,28.0,52,29.73,10.0,West,16.1,-,0.00,,Overcast,270,2014-01-16 05:54:00